Location: Newark
(39.6889°N, 28.1522°E)
Time: 11:33:51
(UTC+00:00)

N. Korean satellite - Visible Passes

Search period start: 20 October 2019 00:00
Search period end: 30 October 2019 00:00
Orbit: 455 x 508 km, 97.2° (Epoch: 19 October)

Date Brightness Start Highest point End Pass type
(mag) Time Alt. Az. Time Alt. Az. Time Alt. Az.
20 Oct 9.6 03:16:51 10° NE 03:19:39 21° E 03:22:26 10° SE visible
22 Oct 9.9 16:08:00 10° SW 16:10:21 17° W 16:12:44 10° NW visible
23 Oct 8.6 03:33:50 10° NNE 03:37:12 34° E 03:40:35 10° SSE visible
23 Oct 8.3 15:41:44 10° SSW 15:44:55 37° W 15:48:10 10° NNW visible
24 Oct 9.9 03:09:20 10° NE 03:11:47 17° E 03:14:14 10° SE visible
25 Oct 10.5 16:27:23 10° W 16:27:56 10° W 16:28:29 10° W visible
26 Oct 7.3 03:51:03 10° NNE 03:54:42 60° E 03:58:21 10° S visible
26 Oct 9.5 15:59:42 10° SSW 16:02:25 22° W 16:05:10 10° NW visible
27 Oct 9.0 03:26:07 10° NE 03:29:19 28° E 03:32:32 10° SSE visible
27 Oct 7.7 15:33:41 10° S 15:37:01 48° W 15:40:24 10° NNW visible
28 Oct 10.2 03:01:54 10° ENE 03:03:52 14° E 03:05:50 10° SE visible
29 Oct 10.1 16:18:14 10° WSW 16:19:57 13° W 16:21:41 10° WNW visible
